Simultaneous Nadir Overpasses (SNOs) Predictions

Prediction of SNOs between NOAA-15 and METOP-C Satellite Orbit:

Table of predicted SNOs for the next 14.0 days since TLE Epoch: 11/7/2020
Index Date (NOAA-15) Time (NOAA-15) Lat,Lon (NOAA-15) SZA (NOAA-15 ) Date (METOP-C) Time (METOP-C) Lat,Lon (METOP-C) SZA (METOP-C ) Distance(km) Time Diff (sec)
1 11/16/2020 21:18:55 -80.96, 76.82 78.02 11/16/2020 21:17:46 -80.95, 76.65 78.07 3.25 69
2 11/16/2020 22:09:30 80.95,-115.74 102.00 11/16/2020 22:08:26 80.95,-115.84 101.97 1.84 64
3 11/16/2020 22:59:57 -80.95, 51.70 77.99 11/16/2020 22:59:07 -80.96, 51.54 78.02 3.01 50
4 11/16/2020 23:50:33 80.96,-141.22 102.01 11/16/2020 23:49:48 80.95,-141.32 101.97 2.28 45
5 11/17/2020 00:41:00 -80.96, 26.22 77.99 11/17/2020 00:40:29 -80.95, 26.06 78.02 2.93 31
6 11/17/2020 01:31:35 80.96,-166.34 102.03 11/17/2020 01:31:09 80.96,-166.43 102.01 1.46 26
7 11/17/2020 02:22:02 -80.95, 1.10 77.96 11/17/2020 02:21:50 -80.96, 0.95 77.98 2.68 12
8 11/17/2020 03:12:38 80.97, 168.17 102.03 11/17/2020 03:12:31 80.95, 168.10 102.01 2.00 7
9 11/17/2020 04:03:05 -80.96, -24.39 77.96 11/17/2020 04:03:12 -80.95, -24.52 77.98 2.60 7
10 11/17/2020 04:53:40 80.96, 143.05 102.06 11/17/2020 04:53:52 80.96, 142.99 102.06 1.09 12
11 11/17/2020 05:44:07 -80.96, -49.51 77.93 11/17/2020 05:44:33 -80.96, -49.64 77.93 2.36 26
12 11/17/2020 06:34:43 80.97, 117.56 102.06 11/17/2020 06:35:14 80.96, 117.51 102.06 1.75 31
13 11/17/2020 07:25:10 -80.97, -74.99 77.93 11/17/2020 07:25:55 -80.96, -75.11 77.93 2.27 45
14 11/17/2020 08:15:45 80.96, 92.44 102.09 11/17/2020 08:16:35 80.97, 92.40 102.11 0.72 50
15 11/17/2020 09:06:12 -80.96,-100.11 77.91 11/17/2020 09:07:16 -80.97,-100.22 77.88 2.05 64
